User: anonymous   Login
Location: Unspecified
(0.0000°N, 0.0000°E)
Time: 18:49:46
(UTC+00:00)
Language:

PAKSAT 1R - Orbit

View from above orbital plane
View from above orbital plane
View from above satellite
View from above satellite

Ground track
Ground track

The orbit data is extracted from the following two-line orbital elements,

1 37779U 11042A   15083.94520160  .00000125  00000-0  00000+0 0  9992
2 37779 000.0493 024.6490 0002614 318.7150 216.9859 01.00274565 13200
Epoch (UTC): 24 March 2015 22:41:05
Eccentricity: 0.0002614
inclination: 0.0493°
perigee height: 35774 km
apogee height: 35796 km
right ascension of ascending node: 24.6490°
argument of perigee: 318.7150°
revolutions per day: 1.00274565
mean anomaly at epoch: 216.9859°
orbit number at epoch: 1320

The dashed part of the orbit path shows where the satellite is in the earth's shadow,  

DLR